sat.trackr.live / text

‹ back to catalog

STARLINK-33884

NORAD 63770 · 2025-089V

PAYLOAD ACTIVE UNKNOWN

§ Identity

Operator
Country
US
Launch date
2025-04-29
Launch site
AFETR
Launch vehicle
Mass (kg)
RCS (m²)

Purposes: comms

External: N2YO · Heavens-Above · Gunter

§ Orbital elements

Epoch: 2026-05-24T22:51:08.807328Z

Period
94.26 min
Inclination
43.0020°
Eccentricity
0.0001589
Mean motion
15.27615600 rev/d
Perigee alt
481.9 km
Apogee alt
484.0 km
Semi-major
6,861.1 km
B*
9.5760e-4
RAAN
334.3089°
Arg perigee
272.8015°
Mean anomaly
87.2655°
Rev number
6,057

§ Raw data

STARLINK-338841 63770U 25089V   26144.95218527  .00026211  00000+0  95760-3 0  99942 63770  43.0020 334.3089 0001589 272.8015  87.2655 15.27615600 60576

JSON: /api/v1/satellites/63770 · /tle

For live sub-satellite position, see the globe view (requires WebGL).

§ Visibility from observer

Set your observer location to see the next 7 days of passes ≥ 10°. The values pass through the URL so the page stays shareable.

No JS? Fill the form by hand. The geolocation button needs JavaScript.